Regional Weather Roundup
Issued by NWS Grand Forks, ND

Home | Current Version | Previous Version | Text Only | Print | Product List | Glossary On
Versions: 1 2 3 4 5 6 7 8 9 10 11 12 13 14 15 16 17 18 19 20 21 22 23 24 25 26 27 28 29 30 31 32 33 34 35 36 37 38 39 40 41 42 43 44 45 46 47 48 49 50
000
ASUS43 KFGF 261131
RWRFGF
PRAIRIE TO PINES  WEATHER ROUNDUP
NATIONAL WEATHER SERVICE EASTERN NORTH DAKOTA/GRAND FORKS ND
600 AM CDT SUN MAR 26 2017

 **SATELLITE DATA USED TO AUGMENT SKY COVER AT AUTOMATED STATIONS**
 *****  WEATHER ACROSS EASTERN NORTH DAKOTA  *****

CITY           SKY/WX    TMP DP  RH WIND       PRES   REMARKS
GRAND FORKS    MOCLDY    34  33  96 S8        29.97R
GRAND FRKS AFB CLOUDY    32  32 100 S9        29.96S WCI  24
DEVILS LAKE    CLOUDY    33  32  96 SE6       29.91F
FARGO          CLOUDY    34  33  96 SE3       29.98S
WAHPETON ARPT    N/A     34  32  93 NE3       29.98S
$$

 ***** WEATHER ACROSS CENTRAL AND WESTERN NORTH DAKOTA  *****

CITY           SKY/WX    TMP DP  RH WIND       PRES   REMARKS
BISMARCK       CLOUDY    38  34  85 CALM      29.93S
MINOT          FAIR      38  33  82 SW7       29.89S
JAMESTOWN      FOG       33  33 100 S5        29.93S VSB 1/2
MINOT AFB      MOCLDY    34  32  93 W7        29.88S
GARRISON         N/A     36  33  89 SE5       29.89S
WILLISTON      FAIR      36  32  85 CALM      29.89S
DICKINSON      MOCLDY    38  34  85 SE8       29.88S
HETTINGER      CLOUDY    43  35  73 N12       29.90S
$$

 *****  OTHER AIRPORT OBSERVATIONS IN OUR AREA  *****

CITY           SKY/WX    TMP DP  RH WIND       PRES   REMARKS
WALHALLA       NOT AVBL
GRAFTON AIRPOR FAIR      34  34 100 S13       29.96F WCI  25
VALLEY CITY AR FOG       32  32 100 SW5       29.97S VSB 1/4
CANDO          NOT AVBL
CAVALIER APRT    N/A     34  32  93 SE5       29.93S
GWINNER        CLOUDY    34  34 100 MISG      29.96S FOG
SHEYENNE NWR     N/A     34  34 100 CALM      29.95S
ROLLA          CLOUDY    34  34 100 NW7       29.90S
 ***** THE ABOVE OBSERVATIONS ARE NON NWS ARE NOT QUALITY
       CONTROLLED AND MAY MIS-REPORT RAIN FOR SNOW...
$$

  *****  WEATHER ACROSS NORTHERN MINNESOTA  *****

CITY           SKY/WX    TMP DP  RH WIND       PRES   REMARKS
FLAG ISLAND    CLOUDY    30  28  93 S13       29.98F WCI  20
WARROAD        CLOUDY    32  28  86 S7        29.98F
ROSEAU         CLOUDY    34  28  80 S7        29.97F
HALLOCK        FAIR      34  32  93 S13       29.95R WCI  25
THF RVR FALLS  CLOUDY    33  32  96 S6        29.99
BAUDETTE       CLOUDY    31  29  92 S6        29.99F
WASKISH        CLOUDY    30  30 100 CALM      30.00S
CROOKSTON      CLOUDY    34  34 100 S6        29.99S
STEPHEN NDAWN    N/A     34  32  93 S8          N/A
GREENBUSH NDAW   N/A     34  32  93 S7          N/A
$$
  *****  WEATHER ACROSS CENTRAL AND WEST MINNESOTA  *****

CITY           SKY/WX    TMP DP  RH WIND       PRES   REMARKS
FOSSTON        CLOUDY    30  28  93 CALM      29.98S
BEMIDJI        CLOUDY    31  31  98 SE3       29.98F
PARK RAPIDS    CLOUDY    33  28  81 NE3       29.97F
ELBOW LAKE     CLOUDY    34  34  99 CALM      29.98R FOG
WADENA         CLOUDY    32  28  86 CALM      29.97S
DETROIT LAKES  CLOUDY    34  32  93 SE3       29.98S
MOORHEAD       CLOUDY    34  32  93 SE3       29.99S FOG
FERGUS FALLS   CLOUDY    36  30  80 E3        30.01S
MORRIS MN      MOCLDY    36  36 100 N5        29.96R FOG
STAPLES        CLOUDY    34  28  80 CALM      29.98S
$$
  *****  WEATHER ELSEWHERE ACROSS MINNESOTA  *****

CITY           SKY/WX    TMP DP  RH WIND       PRES   REMARKS
DULUTH         FRZ DRZL  31  31 100 E9        29.98F WCI  23
INTRNTL FALLS  CLOUDY    31  28  89 SE5       30.01F
ELY            CLOUDY    30  28  93 CALM      30.01S
CLOQUET        CLOUDY    32  30  93 E6        29.98S FOG
WHEATON        CLOUDY    34  34 100 CALM      29.99S FOG
BRAINERD       CLOUDY    33  30  88 NE6       29.98F
HIBBING        CLOUDY    30  30 100 CALM      30.00S
ALEXANDRIA     CLOUDY    34  30  85 NE7       29.97R
SAINT CLOUD    CLOUDY    34  32  92 NE6       29.96S
MINNEAPOLIS    CLOUDY    36  33  89 NE6       29.94S
$$

  *****  WEATHER ACROSS SOUTH DAKOTA  *****

CITY           SKY/WX    TMP DP  RH WIND       PRES   REMARKS
SIOUX FALLS    CLOUDY    38  37  97 N3        29.92R FOG
BROOKINGS      MIX PCPN  36  36 100 NE3       29.91S VSB 1
WATERTOWN      FOG       34  34 100 N3        29.93R VSB 1/2
HURON          CLOUDY    38  38 100 E3        29.93R
SISSETON         N/A     35  35 100 CALM      29.96R
ABERDEEN       CLOUDY    36  33  89 N3        29.95S FOG
MITCHELL       CLOUDY    38  38 100 E5        29.93S FOG
PIERRE         CLOUDY    40  37  89 SE6       29.88S
MOBRIDGE       CLOUDY    39  36  89 E6        29.89S FOG
RAPID CITY     LGT RAIN  42  36  79 N18       29.83F
$$

  *****  SOME WEATHER IN NEARBY STATES *****

CITY           SKY/WX    TMP DP  RH WIND       PRES   REMARKS
GLASGOW MT     FAIR      33  26  75 SE5       29.86S
GREAT FALLS MT FAIR      33  22  63 SW13      29.92R WCI  24
CHEYENNE WY    CLOUDY    42  34  73 NE7       29.83R
SCOTTSBLUFF NE FAIR      42  30  62 E6        29.79F
OMAHA NE       CLOUDY    40  37  89 N6        29.89S FOG
DES MOINES IA  CLOUDY    42  41  96 NW7       29.85R
DAVENPORT IA   FOG       48  47  96 NE7       29.80S VSB 1/4
CHICAGO IL     CLOUDY    48  45  89 NE6       29.85F FOG
EAU CLAIRE WI  CLOUDY    35  34  96 NE6       29.94F
LA CROSSE WI   CLOUDY    38  36  92 N5        29.91F FOG
$$

  *****  SOME NATIONAL WEATHER *****

CITY           SKY/WX    TMP DP  RH WIND       PRES   REMARKS
LA GUARDIA NY  CLOUDY    40  32  73 NE20      30.43R
RALEIGH NC     MOCLDY    53  50  89 CALM      30.22R
ATLANTA GA     FAIR      59  58  96 SE6       30.09R
NEW ORLEANS LA MOCLDY    68  67  96 S6        29.99R
OKLAHOMA CITY  FAIR      42  40  92 E6        29.86S
ALBUQUERQUE NM FAIR      40  28  62 SE6       29.92F
SALT LAKE CITY FAIR      36  35  96 SE3       30.02S FOG
LOS ANGELES CA MOCLDY    57  54  89 CALM      30.02S
BOISE ID       FAIR      40  28  62 SE7       29.96F
SEATTLE WA     CLOUDY    44  39  82 E7        29.92F
$$

*** WEATHER ACROSS MANITOBA...SASKATCHEWAN AND ONTARIO ***
                ***ONTARIO***

CITY           SKY/WX    TMP DP  RH WIND       PRES   REMARKS
GERALDTON      PTCLDY    21   9  58 E6        30.12F WCI  14
THUNDER BAY    CLOUDY    34  28  80 E7        30.07F
SIOUX LOOKOUT  CLOUDY    28  25  86 S6        30.00F WCI  22
TORONTO        CLOUDY    36  32  87 E14G22    30.23F
BIG TROUT LK   CLOUDY    28  14  54 S14       29.93F WCI  17
PICKLE LAKE    CLOUDY    27  12  54 S12       30.00  WCI  16
DRYDEN         CLOUDY    30  27  86 S7        30.00S WCI  23
KENORA         CLOUDY    30  27  86 S12       29.96F WCI  21
$$
                *** MANITOBA***

CITY           SKY/WX    TMP DP  RH WIND       PRES   REMARKS
BRANDON        CLOUDY    30  30 100 N5        29.92R
DAUPHIN        PTCLDY    32  30  93 W6        29.92R
ISLAND LAKE    CLOUDY    36  32  87 SW10G17   29.80R
PILOT MOUND      N/A     32  34 100 SW5         N/A
THE PAS        CLOUDY    16  12  86 NW5       29.94R WCI   9
THOMPSON       CLOUDY    21  18  86 W14G21    29.78R WCI   8
WINNIPEG       MOCLDY    34  32  93 S8        29.92F
LYNN LAKE      CLEAR     10   9  92 NW8       29.86R WCI  -1
CHURCHILL      LGT SNOW  14  12  92 E13       29.95F DRFTSNOWWCI   0
GILLAM         LGT SNOW  27  25  93 E5        29.72F WCI  21
$$
                ***SASKATCHEWAN***

CITY           SKY/WX    TMP DP  RH WIND       PRES   REMARKS
ESTEVAN        MOCLDY    34  32  93 S8        29.89R
KINDERSLEY     CLEAR     28  25  86 S3        29.77R
LLOYDMINSTER   CLOUDY    25  25 100 E5        29.82R FOG     WCI  19
PRINCE ALBERT  FLURRIES  30  27  86 E8        29.90R WCI  23
REGINA         CLEAR     34  32  93 SE10      29.85F
YORKTON        CLOUDY    32  30  93 S6        29.89R
N. BATTLEFORD  PTCLDY    28 N/A N/A NE7       29.87R WCI  21
LA RONGE       CLOUDY    18  16  93 CALM      29.93R
SASKATOON      PTCLDY    28  27  93 E7        29.86R WCI  21
SWIFT CURRENT  PTCLDY    34  25  69 SW12      29.82F
$$
NOTE: THESE ARE AUTOMATED STATIONS WITH LIMITED QUALITY CONTROL
      "FAIR" INDICATES FEW OR NO CLOUDS BELOW 12,000 FEET WITH NO
      SIGNIFICANT WEATHER AND/OR OBSTRUCTIONS TO VISIBILITY.
      SKY/WX - SKY CONDITION AND SIGNIFICANT WEATHER.
      TMP - AIR TEMPERATURE.    DP   - DEWPOINT TEMPERATURE.
      RH  - RELATIVE HUMIDITY.  PRES - PRESSURE.
      HX  - HEAT INDEX.         WCI  - WIND CHILL INDEX.
$



USA.gov is the U.S. government's official web portal to all federal, state and local government web resources and services.